Погода в Шелепово

Россия / Курганская область     55°42′38″N   67°17′50″E
темп.,
°C
ветер,
м/с
пор.,
м/с
влажн.,
%
обл.,
%
осадки,
мм/ч
давл.,
гПа
погр.,
м
21 января, чт
чт2123:00−16зюз61194100 0.6 1010378
02:00−17зюз6139492 0.0 1011351
05:00−17юз6129595 0.1 1012394
08:00−20юз51097100 0.0 1012256
11:00−21зюз599599 0.1 1014294
14:00−20зюз5994100 0.0 1014420
17:00−20зюз5995100 0.1 1013374
20:00−24зюз479997 0.0 1013128
22 января, пт
пт2223:00−25зюз469992 0.1 1014111
02:00−25зюз44100100 0.0 101377
05:00−25з34100100 0.1 101473
08:00−24з3498100 0.0 101590
11:00−22зсз359799 0.1 1016243
14:00−21зсз359699 0.1 1017310
17:00−24сз3597100 0.1 1019156
20:00−28ссз359695 0.0 102280
23 января, сб
сб2323:00−31ссз339859 0.0 102427
02:00−32ссз349721 0.0 102735
05:00−34ссз349611 0.0 103046
08:00−36ссз34960 0.0 103345
11:00−35ссз359519 0.0 1035157
14:00−33сз34930 0.0 1037240
17:00−36сз339618 0.0 103819
20:00−36зсз229499 0.0 104019
24 января, вс
вс2423:00−34зюз229399 0.0 104024
02:00−32ююз2294100 0.0 103965
05:00−31ю3594100 0.0 1039136
08:00−29ююв3598100 0.2 1038179
11:00−27юв4697100 0.3 1038230
14:00−25юв479799 0.0 1037254
17:00−24юв589799 0.1 1036304
20:00−23юв5898100 0.3 1035322
25 января, пн
пн2523:00−22юв5997100 0.7 1032314
02:00−20юв5896100 0.2 1030334
05:00−18юв4797100 1.2 1028299
08:00−18вюв3597100 0.9 1027207
11:00−19в359799 1.1 1028152
14:00−19всв339572 0.0 1030155
17:00−23всв239658 0.0 103220
20:00−24в239675 0.0 103420